Wright-Patt AFB, OH

4:25 AM EDT on July 23, 2017 (GMT -0400)
Wright-Patterson Air Force Base

Weather History for KFFO - November, 2013

Change the Weather History Date:

Wednesday, November 27, 2013

  Actual Average Record
Temperature  
Mean Temperature 28 °F -  
Max Temperature 32 °F 46 °F 61 °F (2006)
Min Temperature 23 °F 30 °F 21 °F (2002)
Degree Days  
Heating Degree Days 37    
Moisture  
Dew Point 18 °F    
Average Humidity 70    
Maximum Humidity 87    
Minimum Humidity 48    
Precipitation  
Precipitation 0.00 in - - ()
Sea Level Pressure  
Sea Level Pressure 30.06 in    
Wind  
Wind Speed 12 mph (WNW)    
Max Wind Speed 21 mph    
Max Gust Speed 30 mph    
Visibility 10 miles    
Events Snow    
Averages and records for this station are not official NWS values.
T = Trace of Precipitation, MM = Missing Value Source: NWS Daily Summary

Daily Weather History Graph

Daily Weather History Graph

Search for Another Location

Airport or City:

Trip Planner

Search our weather history database for the weather conditions in past years. The results will help you decide how hot, cold, wet, or windy it might be!

Date:

Astronomy

Nov. 27, 2013 Rise Set
Actual Time 7:34 AM EST 5:13 PM EST
Civil Twilight 7:04 AM EST 5:42 PM EST
Nautical Twilight 6:31 AM EST 6:16 PM EST
Astronomical Twilight 5:59 AM EST 6:48 PM EST
Moon 1:36 AM EST (11/27) 1:49 PM EST (11/27)
Length of Visible Light 10h 38m
Length of Day
9h 38m
Waning Crescent, 32% of the Moon is Illuminated
Nov 27
Waning Crescent
Dec 2
New
Dec 9
First Quarter
Dec 17
Full
Dec 25
Last Quarter

Hourly Weather History & Observations

Time (EST) Temp. Windchill Dew Point Humidity Pressure Visibility Wind Dir Wind Speed Gust Speed Precip Events Conditions
12:08 AM 32.0 °F 23.6 °F 28.4 °F 87% 29.91 in 10.0 mi NNW 10.4 mph - N/A   Overcast
12:18 AM 32.0 °F 22.1 °F 28.4 °F 87% 29.90 in 10.0 mi NW 13.8 mph 19.6 mph N/A   Overcast
12:58 AM 32.5 °F 23.7 °F 27.7 °F 82% 29.94 in 10.0 mi NNW 11.5 mph - N/A   Overcast
1:08 AM 32.0 °F 22.1 °F 28.4 °F 87% 29.89 in 10.0 mi NW 13.8 mph 20.7 mph N/A   Overcast
1:38 AM 32.0 °F 23.0 °F 26.6 °F 80% 29.90 in 10.0 mi NNW 11.5 mph 20.7 mph N/A   Overcast
1:48 AM 32.0 °F 24.8 °F 24.8 °F 75% 29.90 in 10.0 mi NNW 8.1 mph - N/A   Overcast
1:58 AM 30.7 °F 20.9 °F 24.4 °F 77% 29.94 in 10.0 mi NNW 12.7 mph - N/A   Overcast
2:18 AM 32.0 °F 22.5 °F 24.8 °F 75% 29.92 in 10.0 mi NNW 12.7 mph - N/A   Overcast
2:58 AM 29.8 °F 19.8 °F 22.5 °F 74% 29.96 in 10.0 mi NNW 12.7 mph 19.6 mph N/A   Overcast
3:58 AM 28.8 °F 17.9 °F 19.8 °F 69% 29.96 in 10.0 mi WNW 13.8 mph - N/A   Mostly Cloudy
4:58 AM 26.2 °F 17.1 °F 18.3 °F 72% 29.98 in 10.0 mi WNW 9.2 mph - N/A   Partly Cloudy
5:58 AM 25.0 °F 14.2 °F 17.2 °F 72% 30.00 in 10.0 mi NW 11.5 mph - N/A   Partly Cloudy
6:48 AM 24.8 °F 13.4 °F 17.6 °F 74% 29.97 in 10.0 mi NW 12.7 mph - N/A   Mostly Cloudy
6:58 AM 24.6 °F 14.4 °F 17.1 °F 73% 30.02 in 10.0 mi NW 10.4 mph 25.3 mph N/A   Mostly Cloudy
7:48 AM 24.8 °F 13.4 °F 17.6 °F 74% 30.00 in 10.0 mi NW 12.7 mph 19.6 mph N/A   Mostly Cloudy
7:58 AM 24.6 °F 14.4 °F 17.2 °F 74% 30.04 in 10.0 mi NW 10.4 mph 19.6 mph N/A   Mostly Cloudy
8:18 AM 24.8 °F 12.9 °F 17.6 °F 74% 30.01 in 10.0 mi NW 13.8 mph 21.9 mph N/A   Mostly Cloudy
8:58 AM 25.5 °F 16.2 °F 16.9 °F 70% 30.05 in 10.0 mi NW 9.2 mph - N/A   Overcast
9:55 AM 26.8 °F 15.9 °F 17.2 °F 67% 30.05 in 10.0 mi NW 12.7 mph - N/A   Overcast
10:25 AM 26.6 °F 13.8 °F 15.8 °F 64% 30.02 in 10.0 mi NW 17.3 mph 24.2 mph N/A   Overcast
10:58 AM 28.0 °F 16.1 °F 13.1 °F 54% 30.06 in 10.0 mi NNW 16.1 mph 23.0 mph N/A   Overcast
11:03 AM 28.4 °F 15.1 °F 14.0 °F 55% 30.02 in 10.0 mi NNW 20.7 mph 28.8 mph N/A   Overcast
11:58 AM 28.0 °F 15.7 °F 10.8 °F 48% 30.05 in 10.0 mi NNW 17.3 mph 29.9 mph N/A   Mostly Cloudy
12:58 PM 28.0 °F 18.1 °F 12.2 °F 52% 30.05 in 10.0 mi WNW 11.5 mph 19.6 mph N/A   Mostly Cloudy
1:58 PM 28.6 °F 17.2 °F 12.7 °F 52% 30.05 in 10.0 mi WNW 15.0 mph 26.5 mph N/A   Mostly Cloudy
2:58 PM 28.8 °F 16.2 °F 12.9 °F 52% 30.07 in 10.0 mi WNW 18.4 mph 28.8 mph N/A   Scattered Clouds
3:58 PM 28.9 °F 17.3 °F 14.0 °F 54% 30.10 in 10.0 mi WNW 16.1 mph 23.0 mph N/A   Overcast
4:10 PM 28.4 °F 16.6 °F 15.8 °F 59% 30.07 in 10.0 mi West 16.1 mph 24.2 mph N/A Snow Light Snow
4:58 PM 27.0 °F 16.1 °F 17.4 °F 67% 30.14 in 10.0 mi West 12.7 mph 23.0 mph 0.00 in Snow Light Snow
5:55 PM 26.4 °F 16.0 °F 18.0 °F 70% 30.17 in 10.0 mi West 11.5 mph - 0.00 in   Mostly Cloudy
6:46 PM 24.8 °F 14.0 °F 17.6 °F 74% 30.15 in 10.0 mi West 11.5 mph - N/A   Scattered Clouds
6:58 PM 25.2 °F 16.5 °F 17.4 °F 72% 30.21 in 10.0 mi West 8.1 mph - 0.00 in   Partly Cloudy
7:38 PM 24.8 °F 14.0 °F 17.6 °F 74% 30.17 in 10.0 mi West 11.5 mph 19.6 mph N/A   Mostly Cloudy
7:58 PM 25.2 °F 13.3 °F 17.8 °F 74% 30.22 in 10.0 mi West 13.8 mph - N/A   Mostly Cloudy
8:58 PM 25.5 °F 14.3 °F 17.6 °F 72% 30.25 in 10.0 mi West 12.7 mph - N/A   Overcast
9:58 PM 25.5 °F 15.5 °F 16.9 °F 70% 30.25 in 10.0 mi West 10.4 mph - N/A   Overcast
10:28 PM 24.8 °F 16.1 °F 15.8 °F 69% 30.22 in 10.0 mi West 8.1 mph - N/A   Mostly Cloudy
10:58 PM 24.3 °F 15.4 °F 15.8 °F 70% 30.27 in 10.0 mi West 8.1 mph - N/A   Scattered Clouds
11:58 PM 23.0 °F 14.7 °F 15.6 °F 73% 30.30 in 10.0 mi West 6.9 mph - N/A   Clear